Back to catalog

PRAETORIAN SDA_607

AliveMilitaryPO
NORAD 65570·PAYLOAD·🇺🇸 United States

Launched Sep 10, 2025 from Vandenberg Space Force Base

Loading…

Next Passes (next 24 hours)

TLE

FreshSource: Space-Track

Epoch: Sep 14, 2026, 00:41 UTC

1 65570U 25203F   26257.02890477  .00000187  00000-0  15867-3 0  9990
2 65570  81.3012 288.4283 0008025 316.6378  43.4147 13.83763622 50991

Track PRAETORIAN SDA_607 in real time with AllMySat

Download on the App Store